Smith Lake Weather Center

Moon Phase Calendar



Smith Lake Water Level
Online Cameras

 


      

Current Conditions in Good Hope
4/15/2021 9:22:18 AM

60°F
Feels Like 58
Clear
Humidity
67%
Pressure
30"
Wind
9.2 mph (NNE)
Dew Point
49°F
UV Index
2/10 (Low)
Visibility
6 mi

Hourly Forecast

Date & Time Thu, Apr 15
9:00 AM
Thu, Apr 15
10:00 AM
Thu, Apr 15
11:00 AM
Thu, Apr 15
12:00 PM
Thu, Apr 15
1:00 PM
Thu, Apr 15
2:00 PM
Thu, Apr 15
3:00 PM
Thu, Apr 15
4:00 PM
Thu, Apr 15
5:00 PM
Thu, Apr 15
6:00 PM
Thu, Apr 15
7:00 PM
Thu, Apr 15
8:00 PM
Thu, Apr 15
9:00 PM
Thu, Apr 15
10:00 PM
Thu, Apr 15
11:00 PM
Fri, Apr 16
12:00 AM
Fri, Apr 16
1:00 AM
Fri, Apr 16
2:00 AM
Fri, Apr 16
3:00 AM
Fri, Apr 16
4:00 AM
Fri, Apr 16
5:00 AM
Fri, Apr 16
6:00 AM
Fri, Apr 16
7:00 AM
Fri, Apr 16
8:00 AM
Fri, Apr 16
9:00 AM
Fri, Apr 16
10:00 AM
Fri, Apr 16
11:00 AM
Fri, Apr 16
12:00 PM
Fri, Apr 16
1:00 PM
Fri, Apr 16
2:00 PM
Fri, Apr 16
3:00 PM
Fri, Apr 16
4:00 PM
Fri, Apr 16
5:00 PM
Fri, Apr 16
6:00 PM
Fri, Apr 16
7:00 PM
Fri, Apr 16
8:00 PM
Fri, Apr 16
9:00 PM
Fri, Apr 16
10:00 PM
Fri, Apr 16
11:00 PM
Sat, Apr 17
12:00 AM
Sat, Apr 17
1:00 AM
Sat, Apr 17
2:00 AM
Sat, Apr 17
3:00 AM
Sat, Apr 17
4:00 AM
Sat, Apr 17
5:00 AM
Sat, Apr 17
6:00 AM
Sat, Apr 17
7:00 AM
Sat, Apr 17
8:00 AM
Condition
Clear

Clouds

Clouds

Clouds

Clouds

Clouds

Clouds

Clouds

Clouds

Clouds

Clouds

Clouds

Clouds

Clouds

Clouds

Clouds

Clouds

Clouds

Clouds

Clouds

Clouds

Clouds

Clouds

Clouds

Clouds

Clouds

Clouds

Clouds

Clouds

Clouds

Clouds

Clouds

Clouds

Clouds

Clouds

Clouds

Clouds

Clouds

Clouds

Clouds

Clouds

Clouds

Rain

Rain

Clouds

Rain

Rain

Rain
Temperature 60°F59°F60°F62°F64°F65°F65°F65°F62°F60°F56°F52°F51°F49°F48°F47°F46°F45°F46°F45°F46°F44°F45°F49°F52°F56°F58°F60°F59°F57°F57°F57°F57°F57°F54°F52°F52°F52°F52°F52°F51°F52°F51°F49°F49°F49°F49°F50°F
Feels Like 58°F58°F59°F60°F62°F64°F64°F63°F60°F59°F54°F51°F49°F47°F46°F45°F44°F43°F43°F42°F43°F41°F43°F46°F50°F53°F56°F57°F57°F56°F55°F56°F56°F55°F52°F51°F50°F50°F51°F50°F49°F50°F50°F48°F48°F48°F49°F50°F
Cloudiness 1%14%21%31%45%36%45%47%60%68%73%98%97%98%98%97%97%99%99%100%100%100%100%100%98%98%99%99%99%100%100%100%100%100%100%100%100%100%100%100%100%100%100%100%100%100%100%100%
Visibility 6 mi6 mi6 mi6 mi6 mi6 mi6 mi6 mi6 mi6 mi6 mi6 mi6 mi6 mi6 mi6 mi6 mi6 mi6 mi6 mi6 mi6 mi6 mi6 mi6 mi6 mi6 mi6 mi6 mi6 mi6 mi6 mi6 mi6 mi6 mi6 mi6 mi6 mi6 mi6 mi6 mi6 mi6 mi6 mi6 mi6 mi6 mi6 mi
Precipitation 2%0%0%0%0%0%0%0%0%0%0%0%0%0%0%0%0%0%0%0%0%0%0%0%0%0%0%0%0%0%0%0%0%0%0%0%0%0%0%0%0%26%40%56%52%61%61%93%
Humidity 67%65%61%56%52%48%47%49%54%60%70%76%75%73%74%75%77%78%74%75%73%75%76%67%60%54%49%47%48%57%57%56%58%64%71%71%70%69%68%68%71%70%75%87%89%91%93%94%
Dew Point 49°F48°F47°F46°F46°F45°F45°F45°F45°F46°F46°F45°F43°F41°F40°F40°F39°F39°F38°F38°F38°F37°F38°F38°F39°F39°F39°F40°F40°F42°F42°F42°F43°F45°F44°F43°F43°F42°F42°F42°F42°F42°F43°F46°F46°F47°F47°F48°F
Pressure 30"30"30"30"30"29.97"29.97"29.94"29.94"29.94"29.97"30"30"30"30"29.97"30"29.97"29.97"29.97"29.97"29.97"30"30"30"30"29.97"29.97"29.94"29.94"29.91"29.91"29.91"29.88"29.91"29.91"29.88"29.91"29.91"29.88"29.88"29.88"29.88"29.88"29.88"29.88"29.88"29.91"
Wind Speed 10.5 mph11.4 mph11.3 mph9.4 mph10 mph9.1 mph9.3 mph10.1 mph9.2 mph8.1 mph6.1 mph5.6 mph6 mph5.4 mph5 mph5.2 mph4.6 mph4.8 mph5.3 mph5.3 mph5.9 mph5.4 mph4.2 mph5.7 mph5.6 mph5 mph5.5 mph4.1 mph3.1 mph2.5 mph3.4 mph2.7 mph2.4 mph2.1 mph3.1 mph4.1 mph4.3 mph1.1 mph0.4 mph2.6 mph1.1 mph1.5 mph2.5 mph4.1 mph3.9 mph3.4 mph2.6 mph2.4 mph
Wind
Direction

N
13°
NNE
13°
NNE
11°
N

N

N
354°
N
356°
N
360°
N

N

N
14°
NNE
22°
NNE
17°
NNE
16°
NNE
21°
NNE
12°
NNE
12°
NNE
14°
NNE
14°
NNE
13°
NNE
15°
NNE
12°
NNE
37°
NE
36°
NE
46°
NE
48°
NE
36°
NE
35°
NE

N
360°
N
358°
N
346°
NNW
21°
NNE

N

N
58°
ENE
328°
NNW
175°
S
103°
ESE
104°
ESE
355°
N
351°
N
21°
NNE
17°
NNE
49°
NE
41°
NE
83°
E

Daily Forecast

Date High Low Precip. Humidity
Today
Apr 15

Rain
65 °F
48 °F
51%
56%
Friday
Apr 16

Clouds
60 °F
44 °F
0%
47%
Saturday
Apr 17

Rain
55 °F
49 °F
100%
89%
Sunday
Apr 18

Clouds
61 °F
46 °F
0%
49%
Monday
Apr 19

Clear
66 °F
42 °F
0%
42%
Tuesday
Apr 20

Clouds
71 °F
50 °F
0%
38%
Wednesday
Apr 21

Clouds
63 °F
46 °F
0%
41%
Thursday
Apr 22

Clouds
63 °F
43 °F
0%
36%
Friday
Apr 23

Rain
74 °F
48 °F
100%
40%
Saturday
Apr 24

Rain
73 °F
59 °F
100%
90%
Sunday
Apr 25

Rain
71 °F
56 °F
100%
90%
Monday
Apr 26

Clouds
63 °F
47 °F
0%
36%
Tuesday
Apr 27

Clouds
67 °F
42 °F
0%
36%
Wednesday
Apr 28

Clouds
79 °F
48 °F
0%
42%
Thursday
Apr 29

Rain
80 °F
60 °F
20%
53%
Friday
Apr 30

Clouds
85 °F
62 °F
0%
46%

Temperature 8-14 Day Outlook



Precipitation 8-14 Day Outlook




Quick Links
Smith Lake News
Smith Lake Photos
Smith Lake Videos




About Us
Contact Us
Site Map
Search Site
Advertise With Us
   
www.SmithLake.info
THE SMITH LAKE WEBSITE

Copyright 2021, Lakes Online
Privacy    |    Legal